Change the Weather History Date:

Friday, October 31, 2014

  Actual Average Record
Temperature  
Mean Temperature 58 °F -  
Max Temperature 66 °F 68 °F 84 °F (2004)
Min Temperature 50 °F 46 °F 30 °F (2008)
Degree Days  
Heating Degree Days 7    
Growing Degree Days 8 (Base 50)    
Moisture  
Dew Point 45 °F    
Average Humidity 68    
Maximum Humidity 92    
Minimum Humidity 42    
Precipitation  
Precipitation 0.00 in - - ()
Sea Level Pressure  
Sea Level Pressure 29.85 in    
Wind  
Wind Speed 9 mph (North)    
Max Wind Speed 16 mph    
Max Gust Speed 22 mph    
Visibility 10 miles    
Events      
Averages and records for this station are not official NWS values.
T = Trace of Precipitation, MM = Missing Value Source: NWS Daily Summary

Daily Weather History Graph

Daily Weather History Graph

Search for Another Location

Airport or City:

Trip Planner

Search our weather history database for the weather conditions in past years. The results will help you decide how hot, cold, wet, or windy it might be!

Date:

Astronomy

Oct. 31, 2014 Rise Set
Actual Time 7:29 AM EDT 6:16 PM EDT
Civil Twilight 7:03 AM EDT 6:42 PM EDT
Nautical Twilight 6:33 AM EDT 7:12 PM EDT
Astronomical Twilight 6:04 AM EDT 7:42 PM EDT
Moon 2:13 PM EDT (10/31) 12:33 AM EDT (10/31)
Length of Visible Light 11h 39m
Length of Day
10h 47m
First Quarter, 56% of the Moon is Illuminated
Oct 31
First Quarter
Nov 6
Full
Nov 14
Last Quarter
Nov 22
New
Nov 29
First Quarter

Hourly Weather History & Observations

Time (EDT) Temp. Dew Point Humidity Pressure Visibility Wind Dir Wind Speed Gust Speed Precip Events Conditions
12:56 AM 54.0 °F 50.0 °F 86% 29.95 in 10.0 mi NNE 8.1 mph - N/A   Clear
1:56 AM 53.1 °F 48.9 °F 86% 29.95 in 10.0 mi NNE 5.8 mph - N/A   Clear
2:56 AM 51.1 °F 48.9 °F 92% 29.93 in 10.0 mi North 8.1 mph - N/A   Clear
3:56 AM 52.0 °F 48.9 °F 89% 29.92 in 10.0 mi North 8.1 mph - N/A   Clear
4:56 AM 52.0 °F 46.9 °F 83% 29.90 in 10.0 mi North 8.1 mph - N/A   Clear
5:56 AM 51.1 °F 46.9 °F 86% 29.90 in 10.0 mi North 8.1 mph - N/A   Clear
6:56 AM 51.1 °F 46.0 °F 83% 29.90 in 10.0 mi North 9.2 mph - N/A   Clear
7:56 AM 50.0 °F 46.0 °F 86% 29.91 in 10.0 mi North 8.1 mph - N/A   Clear
8:56 AM 52.0 °F 46.0 °F 80% 29.90 in 10.0 mi North 8.1 mph - N/A   Clear
9:56 AM 55.9 °F 46.0 °F 69% 29.90 in 10.0 mi North 10.4 mph - N/A   Clear
10:56 AM 61.0 °F 46.0 °F 58% 29.89 in 10.0 mi NNE 12.7 mph - N/A   Clear
11:56 AM 64.0 °F 44.1 °F 48% 29.86 in 10.0 mi North 16.1 mph - N/A   Clear
12:56 PM 64.9 °F 43.0 °F 45% 29.84 in 10.0 mi NNE 9.2 mph 21.9 mph N/A   Clear
1:56 PM 64.9 °F 43.0 °F 45% 29.81 in 10.0 mi NE 13.8 mph - N/A   Clear
2:56 PM 66.0 °F 42.1 °F 42% 29.79 in 10.0 mi North 8.1 mph 18.4 mph N/A   Partly Cloudy
3:56 PM 66.0 °F 42.1 °F 42% 29.78 in 10.0 mi North 9.2 mph - N/A   Clear
4:56 PM 64.0 °F 42.1 °F 45% 29.78 in 10.0 mi North 11.5 mph - N/A   Clear
5:56 PM 62.1 °F 42.1 °F 48% 29.78 in 10.0 mi North 9.2 mph - N/A   Partly Cloudy
6:56 PM 59.0 °F 43.0 °F 55% 29.79 in 10.0 mi NNW 9.2 mph - N/A   Clear
7:56 PM 55.9 °F 44.1 °F 64% 29.80 in 10.0 mi North 8.1 mph - N/A   Clear
8:56 PM 53.1 °F 44.1 °F 71% 29.81 in 10.0 mi North 6.9 mph - N/A   Clear
9:56 PM 52.0 °F 44.1 °F 74% 29.79 in 10.0 mi NNE 8.1 mph - N/A   Clear
10:56 PM 52.0 °F 43.0 °F 71% 29.78 in 10.0 mi NNE 6.9 mph - N/A   Clear
11:56 PM 50.0 °F 43.0 °F 77% 29.77 in 10.0 mi North 4.6 mph - N/A   Clear